Time,TemperatureF,DewpointF,PressureIn,WindDirection,WindDirectionDegrees,WindSpeedMPH,WindSpeedGustMPH,Humidity,HourlyPrecipIn,Conditions,Clouds,dailyrainin,SoftwareType,DateUTC
2013-04-03 00:03:00,56.9,51.5,30.07,West,280,0.0,0.0,82,0.00,,CLR,0.00,VWS V14.01,2013-04-03 07:03:00,
2013-04-03 00:08:00,56.6,51.2,30.07,West,280,0.0,0.0,82,0.00,,CLR,0.00,VWS V14.01,2013-04-03 07:08:00,
2013-04-03 00:13:00,56.3,51.2,30.08,West,278,0.0,0.0,83,0.00,,CLR,0.00,VWS V14.01,2013-04-03 07:13:00,
2013-04-03 00:18:00,56.2,51.1,30.07,West,278,0.0,0.0,83,0.00,,CLR,0.00,VWS V14.01,2013-04-03 07:18:00,
2013-04-03 00:23:00,56.0,51.2,30.07,West,280,0.0,0.0,84,0.00,,CLR,0.00,VWS V14.01,2013-04-03 07:23:00,
2013-04-03 00:28:00,56.0,51.2,30.07,West,278,0.0,0.0,84,0.00,,CLR,0.00,VWS V14.01,2013-04-03 07:28:00,
2013-04-03 00:33:00,56.0,51.2,30.07,West,278,0.0,0.0,84,0.00,,CLR,0.00,VWS V14.01,2013-04-03 07:33:00,
2013-04-03 00:38:00,55.9,51.5,30.07,West,278,0.0,0.0,85,0.00,,CLR,0.00,VWS V14.01,2013-04-03 07:38:00,
2013-04-03 00:43:00,55.8,51.0,30.07,West,278,0.0,0.0,84,0.00,,CLR,0.00,VWS V14.01,2013-04-03 07:43:00,
2013-04-03 00:48:00,55.5,51.1,30.08,West,278,0.0,0.0,85,0.00,,CLR,0.00,VWS V14.01,2013-04-03 07:48:00,
2013-04-03 00:53:00,55.3,51.2,30.08,West,280,0.0,0.0,86,0.00,,CLR,0.00,VWS V14.01,2013-04-03 07:53:00,
2013-04-03 00:58:00,55.0,50.9,30.08,West,280,0.0,0.0,86,0.00,,CLR,0.00,VWS V14.01,2013-04-03 07:58:00,
2013-04-03 01:03:00,54.7,50.6,30.08,West,278,0.0,0.0,86,0.00,,CLR,0.00,VWS V14.01,2013-04-03 08:03:00,
2013-04-03 01:08:00,54.5,50.4,30.08,West,278,0.0,0.0,86,0.00,,CLR,0.00,VWS V14.01,2013-04-03 08:08:00,
2013-04-03 01:13:00,54.4,50.3,30.08,West,278,0.0,0.0,86,0.00,,CLR,0.00,VWS V14.01,2013-04-03 08:13:00,
2013-04-03 01:18:00,54.2,50.1,30.08,West,280,0.0,0.0,86,0.00,,CLR,0.00,VWS V14.01,2013-04-03 08:18:00,
2013-04-03 01:23:00,53.9,49.8,30.08,West,280,0.0,0.0,86,0.00,,CLR,0.00,VWS V14.01,2013-04-03 08:23:00,
2013-04-03 01:28:00,53.6,49.8,30.08,West,279,0.0,0.0,87,0.00,,CLR,0.00,VWS V14.01,2013-04-03 08:28:00,
2013-04-03 01:33:00,53.5,49.7,30.08,West,278,0.0,0.0,87,0.00,,CLR,0.00,VWS V14.01,2013-04-03 08:33:00,
2013-04-03 01:38:00,53.4,49.9,30.08,West,278,0.0,0.0,88,0.00,,CLR,0.00,VWS V14.01,2013-04-03 08:38:00,
2013-04-03 01:43:00,53.2,49.7,30.08,West,280,0.0,0.0,88,0.00,,CLR,0.00,VWS V14.01,2013-04-03 08:43:00,
2013-04-03 01:48:00,53.3,50.2,30.08,West,278,0.0,0.0,89,0.00,,CLR,0.00,VWS V14.01,2013-04-03 08:48:00,
2013-04-03 01:53:00,53.5,50.0,30.08,West,278,0.0,0.0,88,0.00,,CLR,0.00,VWS V14.01,2013-04-03 08:53:00,
2013-04-03 01:58:00,53.4,49.9,30.08,West,280,0.0,0.0,88,0.00,,CLR,0.00,VWS V14.01,2013-04-03 08:58:00,
2013-04-03 02:03:00,53.1,50.0,30.08,West,280,0.0,0.0,89,0.00,,CLR,0.00,VWS V14.01,2013-04-03 09:03:00,
2013-04-03 02:08:00,53.2,50.0,30.08,West,280,0.0,0.0,89,0.00,,CLR,0.00,VWS V14.01,2013-04-03 09:08:00,
2013-04-03 02:13:00,53.2,50.0,30.08,West,280,0.0,0.0,89,0.00,,CLR,0.00,VWS V14.01,2013-04-03 09:13:00,
2013-04-03 02:19:00,53.1,50.0,30.08,West,280,0.0,0.0,89,0.00,,CLR,0.00,VWS V14.01,2013-04-03 09:19:00,
2013-04-03 02:24:00,52.9,49.8,30.08,West,278,0.0,0.0,89,0.00,,CLR,0.00,VWS V14.01,2013-04-03 09:24:00,
2013-04-03 02:29:00,52.7,49.5,30.08,West,280,0.0,0.0,89,0.00,,CLR,0.00,VWS V14.01,2013-04-03 09:29:00,
2013-04-03 02:34:00,52.5,49.4,30.08,West,280,0.0,0.0,89,0.00,,CLR,0.00,VWS V14.01,2013-04-03 09:34:00,
2013-04-03 02:39:00,52.3,49.2,30.07,West,278,0.0,0.0,89,0.00,,CLR,0.00,VWS V14.01,2013-04-03 09:39:00,
2013-04-03 02:44:00,52.3,49.5,30.07,West,280,0.0,0.0,90,0.00,,CLR,0.00,VWS V14.01,2013-04-03 09:44:00,
2013-04-03 02:49:00,52.4,49.6,30.07,West,280,0.0,0.0,90,0.00,,CLR,0.00,VWS V14.01,2013-04-03 09:49:00,
2013-04-03 02:54:00,52.4,49.6,30.07,West,280,0.0,0.0,90,0.00,,CLR,0.00,VWS V14.01,2013-04-03 09:54:00,
2013-04-03 02:59:00,52.4,49.6,30.07,West,280,0.0,0.0,90,0.00,,CLR,0.00,VWS V14.01,2013-04-03 09:59:00,
2013-04-03 03:04:00,52.3,49.5,30.07,West,280,0.0,0.0,90,0.00,,CLR,0.00,VWS V14.01,2013-04-03 10:04:00,
2013-04-03 03:09:00,52.2,49.4,30.06,West,280,0.0,0.0,90,0.00,,CLR,0.00,VWS V14.01,2013-04-03 10:09:00,
2013-04-03 03:14:00,52.0,49.2,30.06,West,280,0.0,0.0,90,0.00,,CLR,0.00,VWS V14.01,2013-04-03 10:14:00,
2013-04-03 03:19:00,51.8,49.0,30.06,West,279,0.0,0.0,90,0.00,,CLR,0.00,VWS V14.01,2013-04-03 10:19:00,
2013-04-03 03:24:00,51.6,48.8,30.06,WSW,253,0.0,0.0,90,0.00,,CLR,0.00,VWS V14.01,2013-04-03 10:24:00,
2013-04-03 03:29:00,51.5,48.7,30.07,WSW,252,0.0,0.0,90,0.00,,CLR,0.00,VWS V14.01,2013-04-03 10:29:00,
2013-04-03 03:34:00,51.4,48.6,30.07,SSE,157,0.0,0.0,90,0.00,,CLR,0.00,VWS V14.01,2013-04-03 10:34:00,
2013-04-03 03:39:00,51.3,48.5,30.07,SSE,157,0.0,0.0,90,0.00,,CLR,0.00,VWS V14.01,2013-04-03 10:39:00,
2013-04-03 03:44:00,51.1,48.6,30.07,SSE,156,0.0,0.0,91,0.00,,CLR,0.00,VWS V14.01,2013-04-03 10:44:00,
2013-04-03 03:49:00,51.0,48.5,30.07,SSE,157,0.0,0.0,91,0.00,,CLR,0.00,VWS V14.01,2013-04-03 10:49:00,
2013-04-03 03:54:00,50.9,48.4,30.07,SSE,156,0.0,0.0,91,0.00,,CLR,0.00,VWS V14.01,2013-04-03 10:54:00,
2013-04-03 03:59:00,50.8,48.6,30.07,SSE,156,0.0,0.0,92,0.00,,CLR,0.00,VWS V14.01,2013-04-03 10:59:00,
2013-04-03 04:04:00,50.6,48.1,30.07,SSE,157,0.0,0.0,91,0.00,,CLR,0.00,VWS V14.01,2013-04-03 11:04:00,
2013-04-03 04:09:00,50.5,48.0,30.07,SSW,194,0.0,0.0,91,0.00,,CLR,0.00,VWS V14.01,2013-04-03 11:09:00,
2013-04-03 04:14:00,50.3,47.8,30.07,SSW,194,0.0,0.0,91,0.00,,CLR,0.00,VWS V14.01,2013-04-03 11:14:00,
2013-04-03 04:19:00,50.1,47.6,30.07,SSW,194,0.0,0.0,91,0.00,,CLR,0.00,VWS V14.01,2013-04-03 11:19:00,
2013-04-03 04:24:00,49.9,47.7,30.07,SSW,194,0.0,0.0,92,0.00,,CLR,0.00,VWS V14.01,2013-04-03 11:24:00,
2013-04-03 04:29:00,49.7,47.5,30.07,SSW,194,0.0,0.0,92,0.00,,CLR,0.00,VWS V14.01,2013-04-03 11:29:00,
2013-04-03 04:34:00,49.6,47.7,30.07,SSW,194,0.0,0.0,93,0.00,,CLR,0.00,VWS V14.01,2013-04-03 11:34:00,
2013-04-03 04:39:00,49.5,47.6,30.07,SSW,194,0.0,0.0,93,0.00,,CLR,0.00,VWS V14.01,2013-04-03 11:39:00,
2013-04-03 04:44:00,49.5,47.6,30.07,SSW,195,0.0,0.0,93,0.00,,CLR,0.00,VWS V14.01,2013-04-03 11:44:00,
2013-04-03 04:49:00,49.7,48.0,30.07,SSW,194,0.0,0.0,94,0.00,,CLR,0.00,VWS V14.01,2013-04-03 11:49:00,
2013-04-03 04:54:00,49.7,47.8,30.07,SSW,194,0.0,0.0,93,0.00,,CLR,0.00,VWS V14.01,2013-04-03 11:54:00,
2013-04-03 04:59:00,49.7,47.8,30.07,SSW,194,0.0,0.0,93,0.00,,CLR,0.00,VWS V14.01,2013-04-03 11:59:00,
2013-04-03 05:04:00,49.6,47.7,30.07,SSW,194,0.0,0.0,93,0.00,,CLR,0.00,VWS V14.01,2013-04-03 12:04:00,
2013-04-03 05:09:00,49.5,47.6,30.07,SSW,194,0.0,0.0,93,0.00,,CLR,0.00,VWS V14.01,2013-04-03 12:09:00,
2013-04-03 05:14:00,49.4,47.5,30.08,SSW,194,0.0,0.0,93,0.00,,CLR,0.00,VWS V14.01,2013-04-03 12:14:00,
2013-04-03 05:19:00,49.3,47.4,30.08,SSW,194,0.0,0.0,93,0.00,,CLR,0.00,VWS V14.01,2013-04-03 12:19:00,
2013-04-03 05:24:00,49.2,47.5,30.07,SSW,194,0.0,0.0,94,0.00,,CLR,0.00,VWS V14.01,2013-04-03 12:24:00,
2013-04-03 05:29:00,49.1,47.2,30.07,SSW,194,0.0,0.0,93,0.00,,CLR,0.00,VWS V14.01,2013-04-03 12:29:00,
2013-04-03 05:34:00,48.9,47.2,30.07,SSW,194,0.0,0.0,94,0.00,,CLR,0.00,VWS V14.01,2013-04-03 12:34:00,
2013-04-03 05:39:00,48.8,47.2,30.07,SSW,194,0.0,0.0,94,0.00,,CLR,0.00,VWS V14.01,2013-04-03 12:39:00,
2013-04-03 05:44:00,48.7,47.0,30.07,SSW,194,0.0,0.0,94,0.00,,CLR,0.00,VWS V14.01,2013-04-03 12:44:00,
2013-04-03 05:49:00,48.7,47.0,30.07,SSW,194,0.0,0.0,94,0.00,,CLR,0.00,VWS V14.01,2013-04-03 12:49:00,
2013-04-03 05:54:00,48.6,47.0,30.07,SSW,195,0.0,0.0,94,0.00,,CLR,0.00,VWS V14.01,2013-04-03 12:54:00,
2013-04-03 05:59:00,48.5,46.9,30.07,SSW,194,0.0,0.0,94,0.00,,CLR,0.00,VWS V14.01,2013-04-03 12:59:00,
2013-04-03 06:04:00,48.5,47.1,30.07,SSW,194,0.0,0.0,95,0.00,,CLR,0.00,VWS V14.01,2013-04-03 13:04:00,
2013-04-03 06:09:00,48.6,47.2,30.07,SSW,195,0.0,0.0,95,0.00,,CLR,0.00,VWS V14.01,2013-04-03 13:09:00,
2013-04-03 06:14:00,48.9,47.5,30.07,SSW,194,0.0,0.0,95,0.00,,CLR,0.00,VWS V14.01,2013-04-03 13:14:00,
2013-04-03 06:19:00,48.8,47.4,30.07,SSW,194,0.0,0.0,95,0.00,,CLR,0.00,VWS V14.01,2013-04-03 13:19:00,
2013-04-03 06:24:00,48.8,47.4,30.07,SSW,194,0.0,0.0,95,0.00,,CLR,0.00,VWS V14.01,2013-04-03 13:24:00,
2013-04-03 06:29:00,48.8,47.4,30.08,SSW,194,0.0,0.0,95,0.00,,CLR,0.00,VWS V14.01,2013-04-03 13:29:00,
2013-04-03 06:34:00,48.8,47.4,30.08,SSE,153,0.0,0.0,95,0.00,,CLR,0.00,VWS V14.01,2013-04-03 13:34:00,
2013-04-03 06:39:00,48.8,47.2,30.08,East,101,0.0,0.0,94,0.00,,CLR,0.00,VWS V14.01,2013-04-03 13:39:00,
2013-04-03 06:45:00,48.6,47.0,30.08,SE,139,0.0,0.0,94,0.00,,CLR,0.00,VWS V14.01,2013-04-03 13:45:00,
2013-04-03 06:50:00,48.5,46.9,30.08,SE,139,0.0,0.0,94,0.00,,CLR,0.00,VWS V14.01,2013-04-03 13:50:00,
2013-04-03 06:55:00,48.5,46.9,30.08,SSE,162,0.0,1.0,94,0.00,,CLR,0.00,VWS V14.01,2013-04-03 13:55:00,
2013-04-03 07:00:00,48.5,46.9,30.09,SSE,162,0.0,1.0,94,0.00,,CLR,0.00,VWS V14.01,2013-04-03 14:00:00,
2013-04-03 07:05:00,48.6,47.0,30.09,SSE,162,0.0,0.0,94,0.00,,CLR,0.00,VWS V14.01,2013-04-03 14:05:00,
2013-04-03 07:10:00,48.6,47.0,30.09,SSE,162,0.0,0.0,94,0.00,,CLR,0.00,VWS V14.01,2013-04-03 14:10:00,
2013-04-03 07:15:00,48.5,46.9,30.09,SSE,162,0.0,0.0,94,0.00,,CLR,0.00,VWS V14.01,2013-04-03 14:15:00,
2013-04-03 07:20:00,48.7,47.0,30.09,SSE,162,0.0,0.0,94,0.00,,CLR,0.00,VWS V14.01,2013-04-03 14:20:00,
2013-04-03 07:25:00,48.9,47.2,30.09,SSE,162,0.0,0.0,94,0.00,,CLR,0.00,VWS V14.01,2013-04-03 14:25:00,
2013-04-03 07:30:00,49.1,47.5,30.09,SSE,162,0.0,0.0,94,0.00,,CLR,0.00,VWS V14.01,2013-04-03 14:30:00,
2013-04-03 07:35:00,49.2,47.3,30.09,SSE,160,0.0,0.0,93,0.00,,CLR,0.00,VWS V14.01,2013-04-03 14:35:00,
2013-04-03 07:40:00,49.3,47.4,30.09,SSE,162,0.0,0.0,93,0.00,,CLR,0.00,VWS V14.01,2013-04-03 14:40:00,
2013-04-03 07:45:00,49.4,47.5,30.10,South,191,0.0,0.0,93,0.00,,CLR,0.00,VWS V14.01,2013-04-03 14:45:00,
2013-04-03 07:50:00,49.5,47.6,30.10,South,191,0.0,0.0,93,0.00,,CLR,0.00,VWS V14.01,2013-04-03 14:50:00,
2013-04-03 07:55:00,49.7,47.8,30.10,South,191,0.0,0.0,93,0.00,,CLR,0.00,VWS V14.01,2013-04-03 14:55:00,
2013-04-03 08:00:00,49.9,48.0,30.10,South,191,0.0,0.0,93,0.00,,CLR,0.00,VWS V14.01,2013-04-03 15:00:00,
2013-04-03 08:05:00,50.3,48.1,30.10,South,191,0.0,0.0,92,0.00,,CLR,0.00,VWS V14.01,2013-04-03 15:05:00,
2013-04-03 08:10:00,50.9,48.7,30.10,South,191,0.0,0.0,92,0.00,,CLR,0.00,VWS V14.01,2013-04-03 15:10:00,
2013-04-03 08:15:00,51.8,49.5,30.10,South,191,0.0,0.0,92,0.00,,CLR,0.00,VWS V14.01,2013-04-03 15:15:00,
2013-04-03 08:20:00,53.0,50.2,30.10,South,191,0.0,0.0,90,0.00,,CLR,0.00,VWS V14.01,2013-04-03 15:20:00,
2013-04-03 08:25:00,54.1,50.6,30.10,South,191,0.0,0.0,88,0.00,,CLR,0.00,VWS V14.01,2013-04-03 15:25:00,
2013-04-03 08:30:00,54.5,50.4,30.11,South,191,0.0,0.0,86,0.00,,CLR,0.00,VWS V14.01,2013-04-03 15:30:00,
2013-04-03 08:35:00,55.0,50.6,30.11,South,191,0.0,0.0,85,0.00,,CLR,0.00,VWS V14.01,2013-04-03 15:35:00,
2013-04-03 08:40:00,56.1,51.3,30.10,South,191,0.0,0.0,84,0.00,,CLR,0.00,VWS V14.01,2013-04-03 15:40:00,
2013-04-03 08:45:00,57.2,51.8,30.11,NNE,29,0.0,0.0,82,0.00,,CLR,0.00,VWS V14.01,2013-04-03 15:45:00,
2013-04-03 08:50:00,57.6,51.8,30.11,NNE,24,0.0,2.0,81,0.00,,CLR,0.00,VWS V14.01,2013-04-03 15:50:00,
2013-04-03 08:55:00,57.7,51.6,30.11,North,8,0.0,2.0,80,0.00,,CLR,0.00,VWS V14.01,2013-04-03 15:55:00,
2013-04-03 09:00:00,58.0,52.2,30.11,NNE,15,2.0,2.0,81,0.00,,CLR,0.00,VWS V14.01,2013-04-03 16:00:00,
2013-04-03 09:05:00,58.6,52.8,30.11,NNE,15,0.0,3.0,81,0.00,,CLR,0.00,VWS V14.01,2013-04-03 16:05:00,
2013-04-03 09:10:00,59.3,52.8,30.10,NE,41,3.0,4.0,79,0.00,,CLR,0.00,VWS V14.01,2013-04-03 16:10:00,
2013-04-03 09:15:00,59.5,53.0,30.11,NNE,25,0.0,4.0,79,0.00,,CLR,0.00,VWS V14.01,2013-04-03 16:15:00,
2013-04-03 09:20:00,59.8,53.3,30.11,ENE,71,1.0,4.0,79,0.00,,CLR,0.00,VWS V14.01,2013-04-03 16:20:00,
2013-04-03 09:25:00,60.3,53.8,30.11,East,91,0.0,4.0,79,0.00,,CLR,0.00,VWS V14.01,2013-04-03 16:25:00,
2013-04-03 09:30:00,60.9,53.3,30.11,NNE,20,0.0,4.0,76,0.00,,CLR,0.00,VWS V14.01,2013-04-03 16:30:00,
2013-04-03 09:35:00,61.7,53.7,30.11,North,350,0.0,2.0,75,0.00,,CLR,0.00,VWS V14.01,2013-04-03 16:35:00,
2013-04-03 09:40:00,62.3,54.3,30.11,NNE,21,2.0,2.0,75,0.00,,CLR,0.00,VWS V14.01,2013-04-03 16:40:00,
2013-04-03 09:46:00,62.5,54.1,30.11,NNE,23,0.0,2.0,74,0.00,,CLR,0.00,VWS V14.01,2013-04-03 16:46:00,
2013-04-03 09:51:00,63.3,54.1,30.11,NNE,27,2.0,2.0,72,0.00,,CLR,0.00,VWS V14.01,2013-04-03 16:51:00,
2013-04-03 09:56:00,63.9,53.9,30.11,NE,51,0.0,4.0,70,0.00,,CLR,0.00,VWS V14.01,2013-04-03 16:56:00,
2013-04-03 10:01:00,64.2,53.4,30.11,NNE,33,0.0,4.0,68,0.00,,CLR,0.00,VWS V14.01,2013-04-03 17:01:00,
2013-04-03 10:06:00,64.6,54.2,30.11,NE,34,2.0,4.0,69,0.00,,CLR,0.00,VWS V14.01,2013-04-03 17:06:00,
2013-04-03 10:11:00,65.0,55.0,30.10,SSE,166,0.0,4.0,70,0.00,,CLR,0.00,VWS V14.01,2013-04-03 17:11:00,
2013-04-03 10:16:00,65.1,54.3,30.11,NE,56,1.0,4.0,68,0.00,,CLR,0.00,VWS V14.01,2013-04-03 17:16:00,
2013-04-03 10:21:00,64.9,54.5,30.11,NE,36,3.0,5.0,69,0.00,,CLR,0.00,VWS V14.01,2013-04-03 17:21:00,
2013-04-03 10:26:00,64.9,54.5,30.11,NE,46,2.0,5.0,69,0.00,,CLR,0.00,VWS V14.01,2013-04-03 17:26:00,
2013-04-03 10:31:00,65.3,54.9,30.11,NNE,29,5.0,6.0,69,0.00,,CLR,0.00,VWS V14.01,2013-04-03 17:31:00,
2013-04-03 10:36:00,65.7,56.4,30.11,ENE,75,0.0,6.0,72,0.00,,CLR,0.00,VWS V14.01,2013-04-03 17:36:00,
2013-04-03 10:41:00,66.3,55.4,30.11,East,87,0.0,6.0,68,0.00,,CLR,0.00,VWS V14.01,2013-04-03 17:41:00,
2013-04-03 10:46:00,66.2,55.7,30.11,ENE,58,3.0,6.0,69,0.00,,CLR,0.00,VWS V14.01,2013-04-03 17:46:00,
2013-04-03 10:51:00,66.3,55.8,30.11,NE,56,4.0,6.0,69,0.00,,CLR,0.00,VWS V14.01,2013-04-03 17:51:00,
2013-04-03 10:56:00,65.7,55.7,30.10,NE,37,0.0,9.0,70,0.00,,CLR,0.00,VWS V14.01,2013-04-03 17:56:00,
2013-04-03 11:01:00,65.6,55.2,30.11,NE,34,5.0,5.0,69,0.00,,CLR,0.00,VWS V14.01,2013-04-03 18:01:00,
2013-04-03 11:06:00,65.9,55.8,30.11,NE,43,5.0,8.0,70,0.00,,CLR,0.00,VWS V14.01,2013-04-03 18:06:00,
2013-04-03 11:11:00,66.4,55.9,30.10,NNW,347,5.0,8.0,69,0.00,,CLR,0.00,VWS V14.01,2013-04-03 18:11:00,
2013-04-03 11:16:00,67.1,56.6,30.10,NNE,31,2.0,8.0,69,0.00,,CLR,0.00,VWS V14.01,2013-04-03 18:16:00,
2013-04-03 11:21:00,67.6,57.5,30.10,NNE,29,1.0,8.0,70,0.00,,CLR,0.00,VWS V14.01,2013-04-03 18:21:00,
2013-04-03 11:27:00,67.8,57.3,30.10,ENE,63,1.0,8.0,69,0.00,,CLR,0.00,VWS V14.01,2013-04-03 18:27:00,
2013-04-03 11:32:00,67.8,56.9,30.10,NE,49,1.0,2.0,68,0.00,,CLR,0.00,VWS V14.01,2013-04-03 18:32:00,
2013-04-03 11:37:00,68.8,58.2,30.10,NNE,29,2.0,3.0,69,0.00,,CLR,0.00,VWS V14.01,2013-04-03 18:37:00,
2013-04-03 11:41:00,68.7,57.3,30.10,NNE,25,0.0,6.0,67,0.00,,CLR,0.00,VWS V14.01,2013-04-03 18:41:00,
2013-04-03 11:47:00,69.4,58.4,30.10,WNW,297,0.0,6.0,68,0.00,,CLR,0.00,VWS V14.01,2013-04-03 18:47:00,
2013-04-03 11:52:00,70.1,58.7,30.10,ESE,118,0.0,6.0,67,0.00,,CLR,0.00,VWS V14.01,2013-04-03 18:52:00,
2013-04-03 11:57:00,70.3,58.4,30.09,ENE,75,0.0,7.0,66,0.00,,CLR,0.00,VWS V14.01,2013-04-03 18:57:00,
2013-04-03 12:02:00,70.1,57.4,30.09,North,3,2.0,2.0,64,0.00,,CLR,0.00,VWS V14.01,2013-04-03 19:02:00,
2013-04-03 12:07:00,69.8,57.1,30.09,NNE,15,3.0,5.0,64,0.00,,CLR,0.00,VWS V14.01,2013-04-03 19:07:00,
2013-04-03 12:12:00,70.1,57.8,30.09,South,169,0.0,5.0,65,0.00,,CLR,0.00,VWS V14.01,2013-04-03 19:12:00,
2013-04-03 12:17:00,70.7,57.9,30.09,East,94,0.0,5.0,64,0.00,,CLR,0.00,VWS V14.01,2013-04-03 19:17:00,
2013-04-03 12:22:00,70.5,57.8,30.09,SSE,162,0.0,5.0,64,0.00,,CLR,0.00,VWS V14.01,2013-04-03 19:22:00,
2013-04-03 12:27:00,70.9,56.8,30.09,NE,40,1.0,5.0,61,0.00,,CLR,0.00,VWS V14.01,2013-04-03 19:27:00,
2013-04-03 12:32:00,70.7,58.4,30.09,NNE,13,0.0,0.0,65,0.00,,CLR,0.00,VWS V14.01,2013-04-03 19:32:00,
2013-04-03 12:37:00,71.6,57.5,30.08,NNE,22,0.0,3.0,61,0.00,,CLR,0.00,VWS V14.01,2013-04-03 19:37:00,
2013-04-03 12:42:00,71.2,57.5,30.08,NE,53,2.0,4.0,62,0.00,,CLR,0.00,VWS V14.01,2013-04-03 19:42:00,
2013-04-03 12:47:00,70.3,57.1,30.08,SSW,208,0.0,7.0,63,0.00,,CLR,0.00,VWS V14.01,2013-04-03 19:47:00,
2013-04-03 12:52:00,70.2,57.0,30.07,SW,221,0.0,7.0,63,0.00,,CLR,0.00,VWS V14.01,2013-04-03 19:52:00,
2013-04-03 12:57:00,71.4,56.8,30.07,NNE,15,0.0,7.0,60,0.00,,CLR,0.00,VWS V14.01,2013-04-03 19:57:00,
2013-04-03 13:02:00,72.0,56.9,30.07,North,359,0.0,3.0,59,0.00,,CLR,0.00,VWS V14.01,2013-04-03 20:02:00,
2013-04-03 13:07:00,72.6,57.5,30.07,ENE,63,0.0,4.0,59,0.00,,CLR,0.00,VWS V14.01,2013-04-03 20:07:00,
2013-04-03 13:12:00,73.0,56.9,30.06,ESE,102,2.0,5.0,57,0.00,,CLR,0.00,VWS V14.01,2013-04-03 20:12:00,
2013-04-03 13:18:00,73.0,56.9,30.06,ESE,122,2.0,5.0,57,0.00,,CLR,0.00,VWS V14.01,2013-04-03 20:18:00,
2013-04-03 13:23:00,73.7,58.0,30.06,ESE,117,2.0,5.0,58,0.00,,CLR,0.00,VWS V14.01,2013-04-03 20:23:00,
2013-04-03 13:28:00,73.4,56.3,30.06,NE,43,4.0,7.0,55,0.00,,CLR,0.00,VWS V14.01,2013-04-03 20:28:00,
2013-04-03 13:33:00,73.3,55.7,30.06,North,359,2.0,3.0,54,0.00,,CLR,0.00,VWS V14.01,2013-04-03 20:33:00,
2013-04-03 13:38:00,72.5,55.9,30.06,WNW,283,1.0,5.0,56,0.00,,CLR,0.00,VWS V14.01,2013-04-03 20:38:00,
2013-04-03 13:43:00,72.7,53.5,30.06,NNE,29,4.0,5.0,51,0.00,,CLR,0.00,VWS V14.01,2013-04-03 20:43:00,
2013-04-03 13:48:00,71.7,53.7,30.05,NNE,25,0.0,5.0,53,0.00,,CLR,0.00,VWS V14.01,2013-04-03 20:48:00,
2013-04-03 13:53:00,71.4,53.4,30.05,NE,37,2.0,5.0,53,0.00,,CLR,0.00,VWS V14.01,2013-04-03 20:53:00,
2013-04-03 13:58:00,71.8,54.3,30.05,ESE,113,1.0,5.0,54,0.00,,CLR,0.00,VWS V14.01,2013-04-03 20:58:00,
2013-04-03 14:03:00,72.1,54.0,30.04,NE,43,4.0,4.0,53,0.00,,CLR,0.00,VWS V14.01,2013-04-03 21:03:00,
2013-04-03 14:08:00,72.2,54.1,30.04,NNE,15,5.0,6.0,53,0.00,,CLR,0.00,VWS V14.01,2013-04-03 21:08:00,
2013-04-03 14:13:00,72.2,56.1,30.04,East,79,2.0,6.0,57,0.00,,CLR,0.00,VWS V14.01,2013-04-03 21:13:00,
2013-04-03 14:18:00,73.1,55.5,30.04,NE,45,3.0,6.0,54,0.00,,CLR,0.00,VWS V14.01,2013-04-03 21:18:00,
2013-04-03 14:23:00,73.4,55.8,30.04,SE,139,0.0,6.0,54,0.00,,CLR,0.00,VWS V14.01,2013-04-03 21:23:00,
2013-04-03 14:28:00,73.3,54.6,30.03,North,355,0.0,6.0,52,0.00,,CLR,0.00,VWS V14.01,2013-04-03 21:28:00,
2013-04-03 14:33:00,73.3,53.6,30.03,SSE,166,3.0,4.0,50,0.00,,CLR,0.00,VWS V14.01,2013-04-03 21:33:00,
2013-04-03 14:38:00,74.0,55.8,30.03,NW,321,0.0,4.0,53,0.00,,CLR,0.00,VWS V14.01,2013-04-03 21:38:00,
2013-04-03 14:43:00,75.0,54.6,30.03,ENE,59,0.0,4.0,49,0.00,,CLR,0.00,VWS V14.01,2013-04-03 21:43:00,
2013-04-03 14:48:00,75.6,55.1,30.02,North,4,1.0,4.0,49,0.00,,CLR,0.00,VWS V14.01,2013-04-03 21:48:00,
2013-04-03 14:53:00,76.3,54.6,30.02,WNW,292,1.0,4.0,47,0.00,,CLR,0.00,VWS V14.01,2013-04-03 21:53:00,
2013-04-03 14:58:00,75.7,52.9,30.02,NNE,20,3.0,5.0,45,0.00,,CLR,0.00,VWS V14.01,2013-04-03 21:58:00,
2013-04-03 15:03:00,75.0,53.4,30.02,West,259,0.0,2.0,47,0.00,,CLR,0.00,VWS V14.01,2013-04-03 22:03:00,
2013-04-03 15:08:00,76.0,54.9,30.02,NE,43,0.0,3.0,48,0.00,,CLR,0.00,VWS V14.01,2013-04-03 22:08:00,
2013-04-03 15:13:00,76.1,52.6,30.02,SSE,160,0.0,4.0,44,0.00,,CLR,0.00,VWS V14.01,2013-04-03 22:13:00,
2013-04-03 15:18:00,76.3,52.8,30.01,SE,142,2.0,4.0,44,0.00,,CLR,0.00,VWS V14.01,2013-04-03 22:18:00,
2013-04-03 15:23:00,76.3,53.4,30.01,East,94,0.0,4.0,45,0.00,,CLR,0.00,VWS V14.01,2013-04-03 22:23:00,
2013-04-03 15:28:00,76.5,53.6,30.01,NE,40,0.0,4.0,45,0.00,,CLR,0.00,VWS V14.01,2013-04-03 22:28:00,
2013-04-03 15:33:00,76.4,52.3,30.01,North,9,1.0,4.0,43,0.00,,CLR,0.00,VWS V14.01,2013-04-03 22:33:00,
2013-04-03 15:38:00,75.7,50.4,30.01,NE,38,2.0,4.0,41,0.00,,CLR,0.00,VWS V14.01,2013-04-03 22:38:00,
2013-04-03 15:43:00,75.0,51.6,30.01,NE,41,2.0,5.0,44,0.00,,CLR,0.00,VWS V14.01,2013-04-03 22:43:00,
2013-04-03 15:48:00,74.8,51.5,30.00,NNE,32,0.0,5.0,44,0.00,,CLR,0.00,VWS V14.01,2013-04-03 22:48:00,
2013-04-03 15:53:00,75.1,52.3,30.00,SW,218,0.0,5.0,45,0.00,,CLR,0.00,VWS V14.01,2013-04-03 22:53:00,
2013-04-03 15:59:00,75.9,52.5,30.00,ESE,117,1.0,5.0,44,0.00,,CLR,0.00,VWS V14.01,2013-04-03 22:59:00,
2013-04-03 16:04:00,76.1,52.0,30.00,SSE,152,2.0,6.0,43,0.00,,CLR,0.00,VWS V14.01,2013-04-03 23:04:00,
2013-04-03 16:09:00,76.5,53.0,30.00,ENE,58,0.0,6.0,44,0.00,,CLR,0.00,VWS V14.01,2013-04-03 23:09:00,
2013-04-03 16:14:00,77.2,51.7,30.00,SE,142,1.0,6.0,41,0.00,,CLR,0.00,VWS V14.01,2013-04-03 23:14:00,
2013-04-03 16:19:00,76.8,52.0,29.99,ESE,115,1.0,6.0,42,0.00,,CLR,0.00,VWS V14.01,2013-04-03 23:19:00,
2013-04-03 16:24:00,76.8,52.0,29.99,NW,321,0.0,6.0,42,0.00,,CLR,0.00,VWS V14.01,2013-04-03 23:24:00,
2013-04-03 16:29:00,76.9,50.8,29.99,ENE,75,3.0,6.0,40,0.00,,CLR,0.00,VWS V14.01,2013-04-03 23:29:00,
2013-04-03 16:34:00,76.5,51.1,29.99,South,176,2.0,4.0,41,0.00,,CLR,0.00,VWS V14.01,2013-04-03 23:34:00,
2013-04-03 16:39:00,76.8,52.6,29.99,NE,34,0.0,4.0,43,0.00,,CLR,0.00,VWS V14.01,2013-04-03 23:39:00,
2013-04-03 16:44:00,76.7,51.2,29.98,ESE,111,2.0,6.0,41,0.00,,CLR,0.00,VWS V14.01,2013-04-03 23:44:00,
2013-04-03 16:49:00,76.6,52.5,29.98,NNE,22,0.0,6.0,43,0.00,,CLR,0.00,VWS V14.01,2013-04-03 23:49:00,
2013-04-03 16:54:00,76.4,51.0,29.98,South,172,1.0,6.0,41,0.00,,CLR,0.00,VWS V14.01,2013-04-03 23:54:00,
2013-04-03 16:59:00,76.4,51.0,29.98,South,169,0.0,6.0,41,0.00,,CLR,0.00,VWS V14.01,2013-04-03 23:59:00,
2013-04-03 17:04:00,76.8,53.3,29.97,NNE,20,0.0,2.0,44,0.00,,CLR,0.00,VWS V14.01,2013-04-04 00:04:00,
2013-04-03 17:09:00,76.5,51.7,29.97,NNW,344,0.0,3.0,42,0.00,,CLR,0.00,VWS V14.01,2013-04-04 00:09:00,
2013-04-03 17:15:00,76.2,52.7,29.97,SE,134,0.0,4.0,44,0.00,,CLR,0.00,VWS V14.01,2013-04-04 00:15:00,
2013-04-03 17:20:00,76.2,52.1,29.97,South,170,0.0,4.0,43,0.00,,CLR,0.00,VWS V14.01,2013-04-04 00:20:00,
2013-04-03 17:25:00,76.1,52.6,29.97,ESE,113,1.0,4.0,44,0.00,,CLR,0.00,VWS V14.01,2013-04-04 00:25:00,
2013-04-03 17:30:00,75.3,52.5,29.97,SSE,159,1.0,5.0,45,0.00,,CLR,0.00,VWS V14.01,2013-04-04 00:30:00,
2013-04-03 17:35:00,74.8,52.7,29.97,ESE,109,2.0,2.0,46,0.00,,CLR,0.00,VWS V14.01,2013-04-04 00:35:00,
2013-04-03 17:40:00,74.4,51.7,29.97,SE,134,0.0,2.0,45,0.00,,CLR,0.00,VWS V14.01,2013-04-04 00:40:00,
2013-04-03 17:45:00,74.0,51.9,29.96,ENE,75,0.0,2.0,46,0.00,,CLR,0.00,VWS V14.01,2013-04-04 00:45:00,
2013-04-03 17:50:00,74.1,51.4,29.96,East,101,0.0,2.0,45,0.00,,CLR,0.00,VWS V14.01,2013-04-04 00:50:00,
2013-04-03 17:55:00,75.0,51.0,29.96,ESE,114,0.0,2.0,43,0.00,,CLR,0.00,VWS V14.01,2013-04-04 00:55:00,
2013-04-03 18:00:00,75.6,50.3,29.96,East,95,0.0,2.0,41,0.00,,CLR,0.00,VWS V14.01,2013-04-04 01:00:00,
2013-04-03 18:05:00,76.1,50.7,29.96,North,11,2.0,2.0,41,0.00,,CLR,0.00,VWS V14.01,2013-04-04 01:05:00,
2013-04-03 18:10:00,76.0,50.6,29.96,NE,54,0.0,3.0,41,0.00,,CLR,0.00,VWS V14.01,2013-04-04 01:10:00,
2013-04-03 18:15:00,75.5,50.8,29.96,SE,126,1.0,3.0,42,0.00,,CLR,0.00,VWS V14.01,2013-04-04 01:15:00,
2013-04-03 18:20:00,74.9,50.9,29.96,ESE,122,0.0,3.0,43,0.00,,CLR,0.00,VWS V14.01,2013-04-04 01:20:00,
2013-04-03 18:25:00,74.2,50.3,29.96,ESE,120,0.0,3.0,43,0.00,,CLR,0.00,VWS V14.01,2013-04-04 01:25:00,
2013-04-03 18:30:00,73.5,50.9,29.96,ESE,122,0.0,3.0,45,0.00,,CLR,0.00,VWS V14.01,2013-04-04 01:30:00,
2013-04-03 18:35:00,72.9,50.3,29.96,ESE,121,0.0,0.0,45,0.00,,CLR,0.00,VWS V14.01,2013-04-04 01:35:00,
2013-04-03 18:40:00,72.4,51.0,29.96,ESE,121,0.0,0.0,47,0.00,,CLR,0.00,VWS V14.01,2013-04-04 01:40:00,
2013-04-03 18:45:00,72.1,51.9,29.96,ESE,122,0.0,0.0,49,0.00,,CLR,0.00,VWS V14.01,2013-04-04 01:45:00,
2013-04-03 18:50:00,71.8,51.1,29.96,ESE,103,0.0,1.0,48,0.00,,CLR,0.00,VWS V14.01,2013-04-04 01:50:00,
2013-04-03 18:55:00,71.6,50.9,29.96,ESE,121,0.0,1.0,48,0.00,,CLR,0.00,VWS V14.01,2013-04-04 01:55:00,
2013-04-03 19:00:00,71.3,50.6,29.96,ESE,121,0.0,1.0,48,0.00,,CLR,0.00,VWS V14.01,2013-04-04 02:00:00,
2013-04-03 19:05:00,71.1,50.4,29.96,ESE,121,0.0,0.0,48,0.00,,CLR,0.00,VWS V14.01,2013-04-04 02:05:00,
2013-04-03 19:10:00,70.7,50.6,29.96,SE,127,0.0,0.0,49,0.00,,CLR,0.00,VWS V14.01,2013-04-04 02:10:00,
2013-04-03 19:15:00,70.3,50.8,29.96,SE,127,0.0,0.0,50,0.00,,CLR,0.00,VWS V14.01,2013-04-04 02:15:00,
2013-04-03 19:20:00,69.9,50.4,29.95,SE,127,0.0,0.0,50,0.00,,CLR,0.00,VWS V14.01,2013-04-04 02:20:00,
2013-04-03 19:25:00,69.6,50.7,29.95,SE,127,0.0,0.0,51,0.00,,CLR,0.00,VWS V14.01,2013-04-04 02:25:00,
2013-04-03 19:30:00,69.2,50.8,29.96,SE,128,0.0,0.0,52,0.00,,CLR,0.00,VWS V14.01,2013-04-04 02:30:00,
2013-04-03 19:35:00,69.0,50.7,29.95,SSE,150,0.0,0.0,52,0.00,,CLR,0.00,VWS V14.01,2013-04-04 02:35:00,
2013-04-03 19:40:00,68.6,51.3,29.95,SE,143,0.0,0.0,54,0.00,,CLR,0.00,VWS V14.01,2013-04-04 02:40:00,
2013-04-03 19:45:00,68.2,51.4,29.95,SE,142,0.0,0.0,55,0.00,,CLR,0.00,VWS V14.01,2013-04-04 02:45:00,
2013-04-03 19:50:00,67.5,51.3,29.95,SE,142,0.0,0.0,56,0.00,,CLR,0.00,VWS V14.01,2013-04-04 02:50:00,
2013-04-03 19:55:00,66.9,51.2,29.95,SE,142,0.0,0.0,57,0.00,,CLR,0.00,VWS V14.01,2013-04-04 02:55:00,
2013-04-03 20:00:00,66.9,52.1,29.95,SE,143,0.0,0.0,59,0.00,,CLR,0.00,VWS V14.01,2013-04-04 03:00:00,
2013-04-03 20:05:00,67.0,52.2,29.95,SE,142,0.0,0.0,59,0.00,,CLR,0.00,VWS V14.01,2013-04-04 03:05:00,
2013-04-03 20:10:00,66.7,52.8,29.95,SSE,158,0.0,0.0,61,0.00,,CLR,0.00,VWS V14.01,2013-04-04 03:10:00,
2013-04-03 20:15:00,66.6,53.2,29.95,SSE,168,0.0,1.0,62,0.00,,CLR,0.00,VWS V14.01,2013-04-04 03:15:00,
2013-04-03 20:20:00,66.4,53.4,29.95,SSE,155,0.0,1.0,63,0.00,,CLR,0.00,VWS V14.01,2013-04-04 03:20:00,
2013-04-03 20:25:00,66.0,53.9,29.95,South,169,0.0,1.0,65,0.00,,CLR,0.00,VWS V14.01,2013-04-04 03:25:00,
2013-04-03 20:30:00,65.5,53.8,29.95,SSE,167,0.0,1.0,66,0.00,,CLR,0.00,VWS V14.01,2013-04-04 03:30:00,
2013-04-03 20:35:00,65.3,53.7,29.95,SW,215,0.0,0.0,66,0.00,,CLR,0.00,VWS V14.01,2013-04-04 03:35:00,
2013-04-03 20:41:00,65.2,53.6,29.95,SW,215,0.0,0.0,66,0.00,,CLR,0.00,VWS V14.01,2013-04-04 03:41:00,
2013-04-03 20:46:00,65.0,53.4,29.95,WSW,238,0.0,0.0,66,0.00,,CLR,0.00,VWS V14.01,2013-04-04 03:46:00,
2013-04-03 20:51:00,64.9,53.3,29.95,WSW,255,0.0,1.0,66,0.00,,CLR,0.00,VWS V14.01,2013-04-04 03:51:00,
2013-04-03 20:56:00,64.8,53.2,29.95,West,259,0.0,1.0,66,0.00,,CLR,0.00,VWS V14.01,2013-04-04 03:56:00,
2013-04-03 21:00:00,64.8,53.2,29.95,West,259,0.0,1.0,66,0.00,,CLR,0.00,VWS V14.01,2013-04-04 04:00:00,
2013-04-03 21:01:00,64.8,53.2,29.95,West,259,0.0,1.0,66,0.00,,CLR,0.00,VWS V14.01,2013-04-04 04:01:00,
2013-04-03 21:06:00,64.6,53.0,29.96,WSW,250,0.0,1.0,66,0.00,,CLR,0.00,VWS V14.01,2013-04-04 04:06:00,
2013-04-03 21:11:00,64.4,52.8,29.96,WSW,239,0.0,1.0,66,0.00,,CLR,0.00,VWS V14.01,2013-04-04 04:11:00,
2013-04-03 21:16:00,64.2,53.0,29.96,South,172,0.0,1.0,67,0.00,,CLR,0.00,VWS V14.01,2013-04-04 04:16:00,
2013-04-03 21:21:00,63.9,52.7,29.96,SSE,160,0.0,1.0,67,0.00,,CLR,0.00,VWS V14.01,2013-04-04 04:21:00,
2013-04-03 21:26:00,63.7,53.0,29.96,SSE,163,0.0,1.0,68,0.00,,CLR,0.00,VWS V14.01,2013-04-04 04:26:00,
2013-04-03 21:31:00,63.4,53.1,29.96,SSE,163,0.0,0.0,69,0.00,,CLR,0.00,VWS V14.01,2013-04-04 04:31:00,
2013-04-03 21:36:00,63.1,52.8,29.96,SSE,163,0.0,0.0,69,0.00,,CLR,0.00,VWS V14.01,2013-04-04 04:36:00,
2013-04-03 21:41:00,63.0,52.7,29.96,SW,219,1.0,2.0,69,0.00,,CLR,0.00,VWS V14.01,2013-04-04 04:41:00,
2013-04-03 21:46:00,62.9,52.6,29.96,SSW,198,0.0,2.0,69,0.00,,CLR,0.00,VWS V14.01,2013-04-04 04:46:00,
2013-04-03 21:51:00,62.9,52.6,29.96,SSW,195,0.0,2.0,69,0.00,,CLR,0.00,VWS V14.01,2013-04-04 04:51:00,
2013-04-03 21:56:00,62.9,52.6,29.96,SSW,198,0.0,2.0,69,0.00,,CLR,0.00,VWS V14.01,2013-04-04 04:56:00,
2013-04-03 22:01:00,62.9,52.6,29.96,SSW,194,2.0,3.0,69,0.00,,CLR,0.00,VWS V14.01,2013-04-04 05:01:00,
2013-04-03 22:06:00,63.0,52.7,29.96,SW,224,2.0,4.0,69,0.00,,CLR,0.00,VWS V14.01,2013-04-04 05:06:00,
2013-04-03 22:12:00,62.9,53.0,29.96,South,169,0.0,4.0,70,0.00,,CLR,0.00,VWS V14.01,2013-04-04 05:12:00,
2013-04-03 22:17:00,63.1,52.8,29.97,West,266,1.0,4.0,69,0.00,,CLR,0.00,VWS V14.01,2013-04-04 05:17:00,
2013-04-03 22:22:00,63.4,52.7,29.97,SSW,212,2.0,4.0,68,0.00,,CLR,0.00,VWS V14.01,2013-04-04 05:22:00,
2013-04-03 22:27:00,63.8,52.7,29.97,WSW,249,3.0,4.0,67,0.00,,CLR,0.00,VWS V14.01,2013-04-04 05:27:00,
2013-04-03 22:32:00,63.9,52.7,29.96,SSW,203,0.0,1.0,67,0.00,,CLR,0.00,VWS V14.01,2013-04-04 05:32:00,
2013-04-03 22:37:00,63.9,52.7,29.96,SE,129,0.0,1.0,67,0.00,,CLR,0.00,VWS V14.01,2013-04-04 05:37:00,
2013-04-03 22:42:00,63.8,52.7,29.97,West,276,0.0,1.0,67,0.00,,CLR,0.00,VWS V14.01,2013-04-04 05:42:00,
2013-04-03 22:47:00,63.8,52.7,29.96,WSW,243,0.0,1.0,67,0.00,,CLR,0.00,VWS V14.01,2013-04-04 05:47:00,
2013-04-03 22:52:00,63.8,52.2,29.96,SW,214,0.0,1.0,66,0.00,,CLR,0.00,VWS V14.01,2013-04-04 05:52:00,
2013-04-03 22:57:00,63.3,53.4,29.96,ESE,105,1.0,3.0,70,0.00,,CLR,0.00,VWS V14.01,2013-04-04 05:57:00,
2013-04-03 23:02:00,62.5,53.4,29.96,SE,143,1.0,1.0,72,0.00,,CLR,0.00,VWS V14.01,2013-04-04 06:02:00,
2013-04-03 23:07:00,62.2,53.1,29.96,SSE,150,1.0,3.0,72,0.00,,CLR,0.00,VWS V14.01,2013-04-04 06:07:00,
2013-04-03 23:12:00,62.2,52.7,29.96,SSE,159,0.0,3.0,71,0.00,,CLR,0.00,VWS V14.01,2013-04-04 06:12:00,
2013-04-03 23:17:00,62.3,52.8,29.96,South,171,1.0,3.0,71,0.00,,CLR,0.00,VWS V14.01,2013-04-04 06:17:00,
2013-04-03 23:22:00,62.5,52.6,29.96,SSE,160,0.0,3.0,70,0.00,,CLR,0.00,VWS V14.01,2013-04-04 06:22:00,
2013-04-03 23:27:00,62.7,52.0,29.96,SSE,159,0.0,3.0,68,0.00,,CLR,0.00,VWS V14.01,2013-04-04 06:27:00,
2013-04-03 23:32:00,62.9,51.8,29.96,SSW,207,2.0,2.0,67,0.00,,CLR,0.00,VWS V14.01,2013-04-04 06:32:00,
2013-04-03 23:37:00,63.2,51.7,29.96,SW,218,1.0,3.0,66,0.00,,CLR,0.00,VWS V14.01,2013-04-04 06:37:00,
2013-04-03 23:42:00,63.3,51.8,29.96,SE,141,1.0,3.0,66,0.00,,CLR,0.00,VWS V14.01,2013-04-04 06:42:00,
2013-04-03 23:47:00,63.4,51.0,29.96,SW,222,2.0,3.0,64,0.00,,CLR,0.00,VWS V14.01,2013-04-04 06:47:00,
2013-04-03 23:52:00,63.5,50.7,29.96,South,187,2.0,5.0,63,0.00,,CLR,0.00,VWS V14.01,2013-04-04 06:52:00,
2013-04-03 23:57:00,63.6,50.4,29.96,SSE,160,0.0,5.0,62,0.00,,CLR,0.00,VWS V14.01,2013-04-04 06:57:00,